CW8892 Weather Reports


time (UTC)temp
C
wind
direction
speed
KPH
gust
KPH
rain 1hr
cm
rain 24hr
cm
rain mn
cm
humidity
%
barometer
mb
20260506015431 18 9 0.0 0.0 0.00 0.00 0.00 72 1013.1
20260506014928 18 9 0.0 0.0 0.00 0.00 0.00 73 1012.8
20260506014425 18 9 0.0 0.0 0.00 0.00 0.00 73 1012.9
20260506013921 18 9 0.0 0.0 0.00 0.00 0.00 72 1012.8
20260506013419 18 9 0.0 0.0 0.00 0.00 0.00 72 1012.7
20260506012915 18 9 0.0 0.0 0.00 0.00 0.00 73 1012.7
20260506012412 18 345 1.6 1.6 0.00 0.00 0.00 72 1012.8
20260506011909 18 6 0.0 1.6 0.00 0.00 0.00 73 1012.8
20260506011406 18 4 1.6 1.6 0.00 0.00 0.00 72 1012.7
20260506010903 18 358 3.2 3.2 0.00 0.00 0.00 73 1012.7
20260506010401 18 1 3.2 3.2 0.00 0.00 0.00 71 1012.8
20260506005858 18 298 3.2 3.2 0.00 0.00 0.00 72 1012.8
20260506005355 18 348 3.2 3.2 0.00 0.00 0.00 73 1012.7
20260506004850 18 343 3.2 3.2 0.00 0.00 0.00 71 1012.8
20260506004348 18 347 1.6 3.2 0.00 0.00 0.00 72 1012.7
20260506003844 18 331 0.0 1.6 0.00 0.00 0.00 70 1012.7
20260506003341 18 7 3.2 3.2 0.00 0.00 0.00 73 1012.9
20260506002837 17 359 3.2 3.2 0.00 0.00 0.00 74 1012.7
20260506002334 17 6 3.2 4.8 0.00 0.00 0.00 76 1012.5
20260506001829 17 6 3.2 3.2 0.00 0.00 0.00 75 1012.8
20260506001327 17 5 1.6 1.6 0.00 0.00 0.00 75 1012.7
20260506000823 17 352 3.2 3.2 0.00 0.00 0.00 75 1012.9
20260506000323 17 13 1.6 3.2 0.00 0.00 0.00 73 1012.8
20260505235818 17 270 3.2 3.2 0.00 0.00 0.00 73 1012.7
20260505235315 17 333 1.6 3.2 0.00 0.00 0.00 75 1012.8
20260505234812 17 2 1.6 3.2 0.00 0.00 0.00 75 1012.7
20260505234310 16 6 3.2 3.2 0.00 0.00 0.00 77 1013.0
20260505233807 17 314 4.8 4.8 0.00 0.00 0.00 75 1012.9
20260505233305 17 8 3.2 3.2 0.00 0.00 0.00 75 1012.9
20260505232801 17 0 0.0 0.0 0.00 0.00 0.00 75 1013.0
20260505232259 16 0 3.2 3.2 0.00 0.00 0.00 75 1013.1
20260505231755 16 347 1.6 1.6 0.00 0.00 0.00 76 1013.0
20260505231254 16 332 4.8 4.8 0.00 0.00 0.00 75 1013.2
20260505230752 16 1 3.2 3.2 0.00 0.00 0.00 76 1013.0
20260505230248 16 13 0.0 0.0 0.00 0.00 0.00 75 1013.2
20260505225745 16 20 1.6 1.6 0.00 0.00 0.00 76 1013.4
20260505225242 16 9 1.6 1.6 0.00 0.00 0.00 75 1013.1
20260505224737 16 9 0.0 0.0 0.00 0.00 0.00 76 1013.2
20260505224235 16 3 3.2 3.2 0.00 0.00 0.00 76 1013.1
20260505223732 17 9 4.8 4.8 0.00 0.00 0.00 75 1013.2
20260505223229 16 9 3.2 3.2 0.00 0.00 0.00 76 1013.5
20260505222725 16 346 0.0 0.0 0.00 0.00 0.00 75 1013.6
20260505222221 16 2 3.2 4.8 0.00 0.00 0.00 75 1013.3
20260505221718 16 358 3.2 4.8 0.00 0.00 0.00 76 1013.5
20260505221215 16 356 4.8 4.8 0.00 0.00 0.00 74 1013.3
20260505220712 16 9 0.0 1.6 0.00 0.00 0.00 75 1013.4
20260505220210 17 289 1.6 4.8 0.00 0.00 0.00 75 1013.3
20260505215707 16 7 1.6 1.6 0.00 0.00 0.00 75 1013.5
20260505215205 16 5 3.2 4.8 0.00 0.00 0.00 76 1013.6
20260505214702 16 19 1.6 3.2 0.00 0.00 0.00 76 1013.4
20260505214200 16 348 4.8 4.8 0.00 0.00 0.00 76 1013.6
20260505213657 16 14 0.0 0.0 0.00 0.00 0.00 76 1013.6
20260505213154 16 20 1.6 1.6 0.00 0.00 0.00 76 1013.5
20260505212649 16 13 1.6 1.6 0.00 0.00 0.00 75 1013.5
20260505212147 17 8 0.0 0.0 0.00 0.00 0.00 74 1013.6
20260505211644 16 3 0.0 0.0 0.00 0.00 0.00 75 1013.8
20260505211141 16 1 1.6 3.2 0.00 0.00 0.00 76 1013.7
20260505210638 16 20 1.6 1.6 0.00 0.00 0.00 77 1013.8
20260505210135 16 12 4.8 4.8 0.00 0.00 0.00 76 1013.6
20260505205632 16 11 0.0 0.0 0.00 0.00 0.00 77 1013.6
20260505205131 16 8 3.2 4.8 0.00 0.00 0.00 77 1013.7
20260505204627 16 8 4.8 6.4 0.00 0.00 0.00 78 1013.9
20260505204125 16 344 3.2 3.2 0.00 0.00 0.00 77 1013.7
20260505203621 16 301 0.0 0.0 0.00 0.00 0.00 77 1013.7
20260505203119 15 345 3.2 3.2 0.00 0.00 0.00 79 1014.0
20260505202614 15 332 3.2 3.2 0.00 0.00 0.00 79 1013.8
20260505202110 15 271 3.2 4.8 0.00 0.00 0.00 79 1013.9
20260505201607 15 345 3.2 3.2 0.00 0.00 0.00 78 1013.9
20260505201105 16 2 1.6 3.2 0.00 0.00 0.00 78 1013.8
20260505200602 16 356 0.0 0.0 0.00 0.00 0.00 78 1013.8
20260505200059 15 345 3.2 3.2 0.00 0.00 0.00 79 1013.9
20260505195555 15 5 3.2 4.8 0.00 0.00 0.00 78 1013.8
20260505195053 15 14 1.6 3.2 0.00 0.00 0.00 78 1013.9
20260505194550 16 2 3.2 4.8 0.00 0.00 0.00 78 1013.8
20260505194045 15 2 1.6 3.2 0.00 0.00 0.00 80 1014.2
20260505193543 15 10 3.2 4.8 0.00 0.00 0.00 79 1014.0
20260505193040 15 347 1.6 3.2 0.00 0.00 0.00 80 1014.1
20260505192538 15 3 3.2 3.2 0.00 0.00 0.00 79 1013.9
20260505192036 15 10 1.6 1.6 0.00 0.00 0.00 79 1013.8
20260505191534 15 345 3.2 3.2 0.00 0.00 0.00 80 1014.0
20260505191031 15 2 3.2 3.2 0.00 0.00 0.00 80 1013.9
20260505190526 15 2 0.0 0.0 0.00 0.00 0.00 78 1013.8
20260505190022 15 344 1.6 1.6 0.00 0.00 0.00 79 1014.1
20260505185519 15 355 0.0 1.6 0.00 0.00 0.00 79 1013.8
20260505185015 15 335 0.0 0.0 0.00 0.00 0.00 80 1014.1
20260505184513 15 310 3.2 3.2 0.00 0.00 0.00 79 1013.9
20260505184009 15 356 1.6 1.6 0.00 0.00 0.00 81 1013.7
20260505183506 15 345 3.2 4.8 0.00 0.00 0.00 80 1014.0
20260505183003 15 3 0.0 0.0 0.00 0.00 0.00 79 1013.8
20260505182500 15 3 0.0 0.0 0.00 0.00 0.00 79 1013.9
20260505181956 15 345 1.6 3.2 0.00 0.00 0.00 81 1013.7
20260505181453 14 332 1.6 3.2 0.00 0.00 0.00 82 1013.8
20260505180950 15 315 4.8 4.8 0.00 0.00 0.00 81 1013.9
20260505180446 15 349 0.0 0.0 0.00 0.00 0.00 82 1014.0
20260505175943 15 347 0.0 0.0 0.00 0.00 0.00 81 1013.9
20260505175439 15 100 0.0 0.0 0.00 0.00 0.00 82 1013.9
20260505174936 14 359 0.0 0.0 0.00 0.00 0.00 83 1013.9
20260505174433 13 359 0.0 0.0 0.00 0.00 0.00 85 1014.0
20260505173929 13 359 0.0 0.0 0.00 0.00 0.00 85 1013.8
20260505173426 13 359 0.0 0.0 0.00 0.00 0.00 86 1013.7
20260505172923 13 359 0.0 0.0 0.00 0.00 0.00 86 1013.7
20260505172421 13 353 0.0 0.0 0.00 0.00 0.00 86 1013.8
20260505171920 13 353 0.0 0.0 0.00 0.00 0.00 86 1013.6
20260505171418 13 353 0.0 0.0 0.00 0.00 0.00 87 1013.7
20260505170914 13 349 0.0 0.0 0.00 0.00 0.00 87 1013.8
20260505170411 12 349 0.0 0.0 0.00 0.00 0.00 89 1013.6
20260505165906 12 346 0.0 0.0 0.00 0.00 0.00 90 1013.6
20260505165402 12 359 0.0 1.6 0.00 0.00 0.00 90 1013.7
20260505164857 12 13 0.0 0.0 0.00 0.00 0.00 91 1014.0
20260505164355 12 13 0.0 0.0 0.00 0.00 0.00 91 1013.9
20260505163853 12 13 1.6 1.6 0.00 0.00 0.00 92 1014.0
20260505163352 12 49 0.0 0.0 0.00 0.00 0.00 92 1013.7
20260505162850 12 332 0.0 0.0 0.00 0.00 0.00 93 1014.0
20260505162345 12 332 0.0 0.0 0.00 0.00 0.00 94 1013.7
20260505161843 12 332 0.0 0.0 0.00 0.00 0.00 94 1013.8
20260505161340 12 332 1.6 1.6 0.00 0.00 0.00 95 1013.8
20260505160837 12 347 1.6 3.2 0.00 0.00 0.00 93 1013.9
20260505160335 12 0 0.0 0.0 0.00 0.00 0.00 92 1013.9
20260505153314 12 8 0.0 0.0 0.00 0.00 0.00 93 1013.6
20260505152811 12 8 0.0 0.0 0.00 0.00 0.00 93 1013.9
20260505152307 12 8 0.0 0.0 0.00 0.00 0.00 93 1013.8
20260505151801 11 8 0.0 0.0 0.00 0.00 0.00 93 1013.8
20260505151259 11 9 0.0 0.0 0.00 0.00 0.00 93 1013.7
20260505150755 12 9 0.0 0.0 0.00 0.00 0.00 93 1013.7
20260505150253 12 9 0.0 0.0 0.00 0.00 0.00 93 1013.8
20260505140223 11 331 0.0 0.0 0.00 0.00 0.00 96 1013.5
20260505130147 11 343 0.0 0.0 0.00 0.00 0.00 96 1013.1
20260505124631 11 344 0.0 0.0 0.00 0.00 0.00 96 1012.8
20260505124128 11 344 0.0 0.0 0.00 0.00 0.00 96 1012.9
20260505123624 11 344 0.0 0.0 0.00 0.00 0.00 95 1012.9
20260505123121 11 344 0.0 0.0 0.00 0.00 0.00 95 1012.8
20260505122618 11 344 0.0 0.0 0.00 0.00 0.00 95 1012.8
20260505122114 11 343 1.6 1.6 0.00 0.00 0.00 95 1012.9
20260505121611 11 344 0.0 0.0 0.00 0.00 0.00 94 1012.8
20260505121108 11 344 0.0 0.0 0.00 0.00 0.00 94 1012.9
20260505120604 11 348 0.0 0.0 0.00 0.00 0.00 94 1012.7
20260505120100 11 349 0.0 0.0 0.00 0.00 0.00 94 1013.0
20260505115600 11 332 3.2 3.2 0.00 0.00 0.00 94 1012.7
20260505115057 11 341 0.0 1.6 0.00 0.00 0.00 94 1012.7
20260505114549 11 331 3.2 3.2 0.00 0.00 0.00 94 1012.9
20260505114045 11 343 3.2 3.2 0.00 0.00 0.00 94 1012.8
20260505113541 11 300 6.4 6.4 0.00 0.00 0.00 94 1012.7
20260505113038 11 293 6.4 6.4 0.00 0.00 0.00 93 1012.9
20260505112535 11 359 0.0 0.0 0.00 0.00 0.00 93 1012.8
20260505112033 11 359 0.0 0.0 0.00 0.00 0.00 93 1012.8
20260505111531 11 0 0.0 0.0 0.00 0.00 0.00 93 1012.8
20260505111028 12 0 0.0 0.0 0.00 0.00 0.00 93 1012.9
20260505110525 12 0 0.0 0.0 0.00 0.00 0.00 93 1012.8
20260505101957 12 350 0.0 0.0 0.00 0.00 0.00 91 1012.4
20260505101455 12 350 0.0 0.0 0.00 0.00 0.00 91 1012.5
20260505100952 12 345 0.0 0.0 0.00 0.00 0.00 91 1012.6
20260505100449 12 345 0.0 0.0 0.00 0.00 0.00 91 1012.4
20260505095945 12 344 0.0 0.0 0.00 0.00 0.00 91 1012.4
20260505095442 12 344 1.6 1.6 0.00 0.00 0.00 91 1012.4
20260505094938 12 286 3.2 4.8 0.00 0.00 0.00 91 1012.4
20260505094435 12 345 1.6 1.6 0.00 0.00 0.00 91 1012.4
20260505093931 12 350 1.6 3.2 0.00 0.00 0.00 90 1012.5
20260505093428 12 333 0.0 0.0 0.00 0.00 0.00 91 1012.3
20260505092925 12 340 3.2 3.2 0.00 0.00 0.00 90 1012.2
20260505092423 12 350 0.0 0.0 0.00 0.00 0.00 90 1012.5
20260505091920 12 350 3.2 3.2 0.00 0.00 0.00 90 1012.3
20260505091418 12 350 1.6 1.6 0.00 0.00 0.00 90 1012.3
20260505090916 12 359 3.2 3.2 0.00 0.00 0.00 89 1012.0
20260505090414 12 359 1.6 1.6 0.00 0.00 0.00 89 1012.2
20260505085911 12 359 3.2 3.2 0.00 0.00 0.00 89 1012.2
20260505085409 12 345 1.6 1.6 0.00 0.00 0.00 89 1012.3
20260505084906 12 345 0.0 1.6 0.00 0.00 0.00 89 1012.2
20260505084404 12 345 3.2 3.2 0.00 0.00 0.00 89 1012.0
20260505083901 12 284 4.8 4.8 0.00 0.00 0.00 89 1012.1
20260505083400 12 345 1.6 1.6 0.00 0.00 0.00 88 1012.1
20260505082855 12 345 3.2 3.2 0.00 0.00 0.00 88 1012.1
20260505082351 13 315 0.0 3.2 0.00 0.00 0.00 88 1012.2
20260505081848 13 346 0.0 0.0 0.00 0.00 0.00 88 1012.1
20260505081344 12 346 0.0 0.0 0.00 0.00 0.00 88 1012.2
20260505080841 12 351 0.0 0.0 0.00 0.00 0.00 88 1012.3
20260505080337 13 344 0.0 0.0 0.00 0.00 0.00 88 1012.3
20260505075832 13 349 3.2 3.2 0.00 0.00 0.00 88 1012.2
20260505075330 13 349 0.0 0.0 0.00 0.00 0.00 87 1012.2
20260505074827 13 349 0.0 0.0 0.00 0.00 0.00 87 1012.2
20260505074324 13 345 3.2 3.2 0.00 0.00 0.00 87 1012.1
20260505073822 13 345 1.6 3.2 0.00 0.00 0.00 87 1012.3
20260505073320 13 347 1.6 3.2 0.00 0.00 0.00 87 1012.1
20260505072817 13 250 3.2 3.2 0.00 0.00 0.00 87 1011.9
20260505072313 13 334 1.6 1.6 0.00 0.00 0.00 87 1011.9
20260505071809 13 344 3.2 3.2 0.00 0.00 0.00 87 1012.1
20260505071306 13 299 6.4 6.4 0.00 0.00 0.00 87 1012.1
20260505070804 13 343 3.2 3.2 0.00 0.00 0.00 86 1012.0
20260505070259 13 319 1.6 3.2 0.00 0.00 0.00 86 1011.8
20260505065755 13 332 1.6 3.2 0.00 0.00 0.00 86 1012.0
20260505065252 13 337 0.0 0.0 0.00 0.00 0.00 86 1011.9
20260505064749 13 346 1.6 1.6 0.00 0.00 0.00 86 1011.9
20260505064246 13 346 1.6 1.6 0.00 0.00 0.00 86 1012.0
20260505063744 13 290 6.4 6.4 0.00 0.00 0.00 86 1011.9
20260505063240 13 344 3.2 4.8 0.00 0.00 0.00 86 1011.8
20260505062736 13 314 1.6 3.2 0.00 0.00 0.00 86 1011.8
20260505062234 13 346 3.2 3.2 0.00 0.00 0.00 85 1011.6
20260505061730 13 346 0.0 0.0 0.00 0.00 0.00 85 1011.6
20260505061229 13 346 0.0 1.6 0.00 0.00 0.00 85 1011.5
20260505060726 13 344 1.6 3.2 0.00 0.00 0.00 85 1011.6
20260505060223 13 344 3.2 3.2 0.00 0.00 0.00 85 1011.8
20260505055718 13 345 0.0 0.0 0.00 0.00 0.00 85 1011.8
20260505055214 14 344 0.0 0.0 0.00 0.00 0.00 85 1011.6
20260505054712 14 345 0.0 0.0 0.00 0.00 0.00 84 1011.8
20260505054210 14 345 0.0 0.0 0.00 0.00 0.00 84 1011.8
20260505053708 14 350 0.0 0.0 0.00 0.00 0.00 84 1011.5
20260505053204 14 350 0.0 1.6 0.00 0.00 0.00 84 1011.9
20260505052702 14 1 0.0 0.0 0.00 0.00 0.00 84 1011.9
20260505052158 14 312 4.8 6.4 0.00 0.00 0.00 84 1011.6
20260505051655 14 347 3.2 3.2 0.00 0.00 0.00 84 1011.4
20260505051153 14 348 1.6 1.6 0.00 0.00 0.00 84 1011.6
20260505050651 15 325 3.2 3.2 0.00 0.00 0.00 83 1011.5
20260505050150 15 336 3.2 3.2 0.00 0.00 0.00 83 1011.4
20260505041624 15 336 0.0 0.0 0.00 0.00 0.00 83 1010.8
20260505041122 15 337 0.0 0.0 0.00 0.00 0.00 83 1010.8
20260505040619 16 337 0.0 0.0 0.00 0.00 0.00 83 1010.5
20260505040116 16 336 0.0 0.0 0.00 0.00 0.00 83 1010.4
20260505035612 16 352 0.0 0.0 0.00 0.00 0.00 83 1010.4
20260505035108 16 321 0.0 0.0 0.00 0.00 0.00 84 1010.4
20260505034605 16 321 0.0 0.0 0.00 0.00 0.00 84 1010.2
20260505034102 16 322 0.0 0.0 0.00 0.00 0.00 83 1010.2
20260505033559 16 321 0.0 0.0 0.00 0.00 0.00 82 1009.9
20260505033058 17 337 0.0 0.0 0.00 0.00 0.00 80 1009.8
20260505032555 17 256 0.0 0.0 0.00 0.00 0.00 80 1009.7
20260505032051 17 255 1.6 1.6 0.00 0.00 0.00 78 1009.7
20260505031548 17 348 0.0 0.0 0.00 0.00 0.00 78 1009.5
20260505031044 17 274 0.0 0.0 0.00 0.00 0.00 77 1009.4
20260505030542 17 307 4.8 4.8 0.00 0.00 0.00 77 1009.7
20260505030037 18 303 4.8 4.8 0.00 0.00 0.00 76 1009.2
20260505025533 18 274 6.4 6.4 0.00 0.00 0.00 75 1009.2
20260505025033 18 315 4.8 4.8 0.00 0.00 0.00 74 1009.2
20260505024529 19 347 0.0 0.0 0.00 0.00 0.00 73 1009.2
20260505024026 19 267 4.8 4.8 0.00 0.00 0.00 72 1009.0
20260505023523 20 275 6.4 6.4 0.00 0.00 0.00 72 1009.1
20260505023021 20 334 3.2 3.2 0.00 0.00 0.00 69 1009.0
20260505022518 20 347 1.6 1.6 0.00 0.00 0.00 69 1008.9
20260505022015 20 334 1.6 3.2 0.00 0.00 0.00 69 1009.1
20260505021512 20 265 3.2 6.4 0.00 0.00 0.00 68 1009.0
20260505021008 20 347 1.6 3.2 0.00 0.00 0.00 69 1008.9
20260505020503 21 354 3.2 3.2 0.00 0.00 0.00 69 1009.0
20260505015959 20 348 1.6 1.6 0.00 0.00 0.00 69 1008.8
20260505015457 21 333 3.2 4.8 0.00 0.00 0.00 68 1009.1